WXM80 ListenWXM80 Stop

You find our weather info also at:

UK Metoffice

WeatherCloud

Weather Underground

Northeastern Weather Network

AWEKAS

Citizen Weather Observer Program (CWOP)

HAMweather, WeatherForYou, PWS Weather


Weather Underground History page Text

Daily Summary for July 9, 2017 Units:  English    Metric   Both
« Previous Day
Next Day »
Daily Weekly Monthly Yearly Custom
  High: Low: Average:
Temperature: 87.8 °F 66.3 °F 76.2 °F
Dew Point: 66.0 °F 55.9 °F 60.9 °F
Humidity: 87 % 34 % 62 %
Wind Speed: 4.9 mph 0.0 mph 1.4 mph
Wind Gust: 12.0 mph - -
Wind:- - WSW
Pressure: 30.01 in 29.81 in -
Precipitation: 0.00 in    
Historical Graphs
 
 
Tabular Data for July 9, 2017
Time Temperature Dew Point Pressure Wind Wind Speed Wind Gust Humidity Rainfall Rate (Hourly)
00:02 71.2 °F 65.8 °F 29.81 in WSW 0.1 mph 2.3 mph 83 % 0.00 in
00:07 71.1 °F 65.7 °F 29.81 in Calm     83 % 0.00 in
00:12 71.0 °F 65.6 °F 29.81 in Calm     83 % 0.00 in
00:17 70.9 °F 65.5 °F 29.81 in WSW 0.2 mph 1.2 mph 83 % 0.00 in
00:22 70.8 °F 65.4 °F 29.82 in Calm     83 % 0.00 in
00:27 70.7 °F 65.6 °F 29.82 in WSW 0.3 mph 1.2 mph 84 % 0.00 in
00:32 70.6 °F 65.9 °F 29.81 in Calm   1.2 mph 85 % 0.00 in
00:37 70.5 °F 65.8 °F 29.82 in WSW 1.0 mph 3.0 mph 85 % 0.00 in
00:42 70.4 °F 66.0 °F 29.81 in WSW 0.2 mph 3.5 mph 86 % 0.00 in
00:43 70.3 °F 65.9 °F 29.82 in WSW 0.1 mph 2.0 mph 86 % 0.00 in
00:48 70.3 °F 65.9 °F 29.82 in Calm   1.2 mph 86 % 0.00 in
00:53 70.2 °F 65.8 °F 29.82 in WSW 1.4 mph 3.5 mph 86 % 0.00 in
00:58 70.2 °F 65.8 °F 29.82 in Calm   1.2 mph 86 % 0.00 in
01:03 70.1 °F 66.0 °F 29.82 in WSW 1.0 mph 2.3 mph 87 % 0.00 in
01:08 70.1 °F 66.0 °F 29.82 in Calm   1.0 mph 87 % 0.00 in
01:13 70.0 °F 65.6 °F 29.83 in WSW 0.9 mph 3.5 mph 86 % 0.00 in
01:18 70.0 °F 65.6 °F 29.82 in Calm     86 % 0.00 in
01:23 69.9 °F 65.5 °F 29.83 in Calm   2.3 mph 86 % 0.00 in
01:28 69.9 °F 65.5 °F 29.82 in WSW 2.0 mph 3.5 mph 86 % 0.00 in
01:33 69.8 °F 65.8 °F 29.82 in WSW 0.4 mph 1.2 mph 87 % 0.00 in
01:38 69.7 °F 65.7 °F 29.82 in WSW 1.5 mph 2.3 mph 87 % 0.00 in
01:43 69.6 °F 65.6 °F 29.83 in West 1.0 mph 3.5 mph 87 % 0.00 in
01:48 69.4 °F 65.0 °F 29.83 in SSW 0.8 mph 2.3 mph 86 % 0.00 in
01:53 69.4 °F 64.7 °F 29.83 in West 0.3 mph 2.3 mph 85 % 0.00 in
01:58 69.3 °F 64.3 °F 29.83 in SW 1.4 mph 5.0 mph 84 % 0.00 in
02:03 69.3 °F 64.3 °F 29.83 in West 2.9 mph 5.0 mph 84 % 0.00 in
02:08 69.3 °F 63.9 °F 29.84 in West 1.5 mph 5.0 mph 83 % 0.00 in
02:13 69.3 °F 63.6 °F 29.84 in WSW 0.7 mph 3.5 mph 82 % 0.00 in
02:18 69.4 °F 63.7 °F 29.84 in SW 0.4 mph 3.5 mph 82 % 0.00 in
02:23 69.4 °F 63.3 °F 29.84 in WSW 2.0 mph 5.8 mph 81 % 0.00 in
02:28 69.5 °F 63.1 °F 29.84 in West 1.9 mph 5.8 mph 80 % 0.00 in
02:34 69.5 °F 62.7 °F 29.84 in WNW 1.6 mph 3.5 mph 79 % 0.00 in
02:39 69.5 °F 62.3 °F 29.84 in WNW 2.4 mph 4.6 mph 78 % 0.00 in
02:44 69.5 °F 62.0 °F 29.84 in WNW 1.2 mph 4.6 mph 77 % 0.00 in
02:49 69.6 °F 61.7 °F 29.84 in WSW 1.2 mph 2.3 mph 76 % 0.00 in
02:54 69.6 °F 61.7 °F 29.83 in WSW 2.1 mph 4.6 mph 76 % 0.00 in
02:59 69.7 °F 62.2 °F 29.83 in West 0.9 mph 3.5 mph 77 % 0.00 in
03:04 69.7 °F 61.8 °F 29.83 in WNW 0.4 mph 4.0 mph 76 % 0.00 in
03:09 69.7 °F 61.4 °F 29.83 in SW 2.0 mph 4.6 mph 75 % 0.00 in
03:14 69.7 °F 61.0 °F 29.83 in WNW 0.9 mph 4.6 mph 74 % 0.00 in
03:19 69.6 °F 60.9 °F 29.83 in WNW 0.5 mph 5.8 mph 74 % 0.00 in
03:24 69.6 °F 60.9 °F 29.83 in West 3.9 mph 4.6 mph 74 % 0.00 in
03:29 69.6 °F 61.3 °F 29.83 in West 1.0 mph 5.8 mph 75 % 0.00 in
03:34 69.6 °F 61.3 °F 29.83 in WNW 0.6 mph 3.5 mph 75 % 0.00 in
03:39 69.5 °F 61.2 °F 29.84 in WNW 4.8 mph 6.9 mph 75 % 0.00 in
03:44 69.5 °F 61.2 °F 29.84 in WNW 2.8 mph 4.0 mph 75 % 0.00 in
03:49 69.5 °F 61.6 °F 29.84 in WNW 3.3 mph 6.9 mph 76 % 0.00 in
03:54 69.4 °F 61.5 °F 29.84 in WNW 3.0 mph 6.9 mph 76 % 0.00 in
03:59 69.4 °F 61.1 °F 29.84 in West 1.6 mph 8.0 mph 75 % 0.00 in
04:04 69.3 °F 61.4 °F 29.84 in West 0.7 mph 4.0 mph 76 % 0.00 in
04:09 69.3 °F 61.4 °F 29.84 in NW 0.9 mph 3.5 mph 76 % 0.00 in
04:14 69.2 °F 61.3 °F 29.85 in West 1.4 mph 7.0 mph 76 % 0.00 in
04:19 69.1 °F 61.2 °F 29.85 in West 2.1 mph 4.6 mph 76 % 0.00 in
04:24 69.0 °F 60.7 °F 29.85 in SW 3.7 mph 6.9 mph 75 % 0.00 in
04:30 68.8 °F 59.8 °F 29.85 in West 2.0 mph 5.8 mph 73 % 0.00 in
04:35 68.8 °F 60.2 °F 29.85 in WSW 2.1 mph 7.0 mph 74 % 0.00 in
04:40 68.7 °F 60.5 °F 29.86 in WNW 3.1 mph 6.9 mph 75 % 0.00 in
04:45 68.6 °F 60.0 °F 29.86 in WNW 3.6 mph 8.1 mph 74 % 0.00 in
04:50 68.4 °F 59.8 °F 29.86 in SSW 4.5 mph 6.9 mph 74 % 0.00 in
04:55 68.3 °F 59.7 °F 29.86 in WNW 1.5 mph 10.4 mph 74 % 0.00 in
05:00 68.1 °F 59.5 °F 29.86 in West 4.6 mph 9.2 mph 74 % 0.00 in
05:05 68.0 °F 59.4 °F 29.87 in WNW 2.9 mph 4.6 mph 74 % 0.00 in
05:10 67.9 °F 59.3 °F 29.87 in NW 2.3 mph 4.6 mph 74 % 0.00 in
05:15 67.7 °F 59.5 °F 29.87 in West 3.4 mph 6.9 mph 75 % 0.00 in
05:20 67.7 °F 59.9 °F 29.87 in WNW 3.1 mph 4.6 mph 76 % 0.00 in
05:25 67.6 °F 59.8 °F 29.88 in WNW 1.3 mph 3.5 mph 76 % 0.00 in
05:30 67.4 °F 59.6 °F 29.87 in WNW 2.1 mph 4.6 mph 76 % 0.00 in
05:35 67.3 °F 59.5 °F 29.88 in WNW 0.3 mph 3.5 mph 76 % 0.00 in
05:40 67.1 °F 59.3 °F 29.88 in WNW 2.6 mph 4.6 mph 76 % 0.00 in
05:45 67.0 °F 59.2 °F 29.88 in NW 0.6 mph 2.3 mph 76 % 0.00 in
05:50 66.9 °F 59.1 °F 29.88 in SSE 0.2 mph 1.2 mph 76 % 0.00 in
05:55 66.8 °F 59.0 °F 29.89 in Calm   1.0 mph 76 % 0.00 in
06:00 66.7 °F 58.9 °F 29.89 in SSW 0.5 mph 2.0 mph 76 % 0.00 in
06:05 66.6 °F 59.2 °F 29.89 in WNW 1.4 mph 3.5 mph 77 % 0.00 in
06:10 66.5 °F 59.1 °F 29.89 in Calm   1.2 mph 77 % 0.00 in
06:15 66.5 °F 59.1 °F 29.90 in WNW 1.3 mph 3.5 mph 77 % 0.00 in
06:20 66.4 °F 58.6 °F 29.90 in West 0.5 mph 2.3 mph 76 % 0.00 in
06:25 66.3 °F 58.5 °F 29.90 in WSW 1.8 mph 4.6 mph 76 % 0.00 in
06:30 66.3 °F 58.5 °F 29.90 in West 1.1 mph 2.0 mph 76 % 0.00 in
06:36 66.4 °F 59.0 °F 29.90 in Calm   3.0 mph 77 % 0.00 in
06:41 66.5 °F 59.1 °F 29.91 in West 1.0 mph 4.0 mph 77 % 0.00 in
06:46 66.7 °F 59.3 °F 29.91 in West 1.0 mph 4.0 mph 77 % 0.00 in
06:51 67.0 °F 59.9 °F 29.91 in WNW 1.0 mph 4.0 mph 78 % 0.00 in
06:56 67.2 °F 60.1 °F 29.91 in West 1.7 mph 6.0 mph 78 % 0.00 in
07:01 67.6 °F 59.8 °F 29.91 in WNW 0.8 mph 3.0 mph 76 % 0.00 in
07:06 67.9 °F 60.1 °F 29.92 in West 1.0 mph 4.0 mph 76 % 0.00 in
07:11 68.3 °F 60.1 °F 29.92 in Calm   4.0 mph 75 % 0.00 in
07:16 68.7 °F 59.7 °F 29.92 in WNW 2.0 mph 7.0 mph 73 % 0.00 in
07:21 69.1 °F 59.3 °F 29.92 in WNW 2.0 mph 6.0 mph 71 % 0.00 in
07:26 69.4 °F 59.2 °F 29.92 in WNW 3.0 mph 7.0 mph 70 % 0.00 in
07:31 69.7 °F 59.5 °F 29.92 in WNW 1.0 mph 8.0 mph 70 % 0.00 in
07:36 69.9 °F 59.3 °F 29.93 in WNW 2.0 mph 5.0 mph 69 % 0.00 in
07:41 70.1 °F 59.5 °F 29.93 in WNW 1.0 mph 5.0 mph 69 % 0.00 in
07:46 70.3 °F 59.6 °F 29.93 in WNW 2.0 mph 6.0 mph 69 % 0.00 in
07:51 70.3 °F 58.8 °F 29.93 in WNW 3.0 mph 9.0 mph 67 % 0.00 in
07:56 70.3 °F 58.8 °F 29.93 in WNW 3.0 mph 8.0 mph 67 % 0.00 in
08:01 70.2 °F 58.3 °F 29.93 in WNW 1.4 mph 5.8 mph 66 % 0.00 in
08:06 70.2 °F 58.3 °F 29.94 in WNW 1.8 mph 6.9 mph 66 % 0.00 in
08:11 70.2 °F 58.7 °F 29.94 in WNW 3.0 mph 6.9 mph 67 % 0.00 in
08:16 70.2 °F 58.7 °F 29.94 in WNW 3.1 mph 5.8 mph 67 % 0.00 in
08:21 70.2 °F 59.1 °F 29.94 in West 1.8 mph 5.8 mph 68 % 0.00 in
08:26 70.2 °F 58.7 °F 29.94 in West 1.5 mph 5.8 mph 67 % 0.00 in
08:31 70.3 °F 58.8 °F 29.95 in SW 0.9 mph 4.6 mph 67 % 0.00 in
08:36 70.3 °F 58.0 °F 29.95 in West 1.2 mph 5.8 mph 65 % 0.00 in
08:41 70.4 °F 58.9 °F 29.95 in WSW 0.7 mph 2.3 mph 67 % 0.00 in
08:46 70.5 °F 58.6 °F 29.95 in WNW 2.3 mph 4.6 mph 66 % 0.00 in
08:51 70.6 °F 59.1 °F 29.95 in SSW 2.0 mph 6.0 mph 67 % 0.00 in
08:56 70.7 °F 58.8 °F 29.95 in WNW 2.0 mph 3.5 mph 66 % 0.00 in
09:01 70.8 °F 58.9 °F 29.95 in SW 0.9 mph 4.0 mph 66 % 0.00 in
09:06 70.9 °F 58.1 °F 29.95 in WNW 2.5 mph 3.5 mph 64 % 0.00 in
09:11 71.0 °F 58.6 °F 29.95 in SW 2.0 mph 3.5 mph 65 % 0.00 in
09:16 71.1 °F 59.2 °F 29.95 in WNW 1.1 mph 3.5 mph 66 % 0.00 in
09:21 71.2 °F 60.5 °F 29.95 in WNW 0.9 mph 3.5 mph 69 % 0.00 in
09:26 71.3 °F 59.8 °F 29.95 in NW 0.5 mph 3.5 mph 67 % 0.00 in
09:31 71.4 °F 59.9 °F 29.95 in SW 1.6 mph 4.0 mph 67 % 0.00 in
09:36 71.6 °F 60.1 °F 29.95 in SW 1.3 mph 2.3 mph 67 % 0.00 in
09:41 71.8 °F 60.2 °F 29.95 in West 1.3 mph 3.5 mph 67 % 0.00 in
09:46 72.1 °F 60.5 °F 29.96 in Calm   1.2 mph 67 % 0.00 in
09:51 72.5 °F 60.5 °F 29.96 in WSW 3.2 mph 5.0 mph 66 % 0.00 in
09:56 73.1 °F 60.6 °F 29.96 in West 2.4 mph 5.8 mph 65 % 0.00 in
10:01 73.9 °F 60.1 °F 29.96 in West 1.9 mph 5.8 mph 62 % 0.00 in
10:06 74.8 °F 62.2 °F 29.97 in WNW 1.4 mph 3.5 mph 65 % 0.00 in
10:12 75.8 °F 62.8 °F 29.96 in NNW 0.9 mph 3.5 mph 64 % 0.00 in
10:17 76.7 °F 61.8 °F 29.97 in West 1.1 mph 3.5 mph 60 % 0.00 in
10:22 77.7 °F 61.7 °F 29.97 in WNW 3.2 mph 5.8 mph 58 % 0.00 in
10:27 78.3 °F 61.3 °F 29.97 in West 2.1 mph 5.8 mph 56 % 0.00 in
10:32 79.0 °F 61.5 °F 29.96 in West 3.0 mph 5.8 mph 55 % 0.00 in
10:37 79.8 °F 62.7 °F 29.97 in WNW 0.6 mph 3.5 mph 56 % 0.00 in
10:42 80.5 °F 61.8 °F 29.97 in WNW 0.8 mph 4.0 mph 53 % 0.00 in
10:47 81.0 °F 60.6 °F 29.97 in WNW 2.5 mph 4.6 mph 50 % 0.00 in
10:52 81.6 °F 61.2 °F 29.97 in NW 1.8 mph 3.5 mph 50 % 0.00 in
10:57 82.1 °F 62.7 °F 29.97 in WNW 1.8 mph 4.6 mph 52 % 0.00 in
10:58 82.2 °F 62.8 °F 29.97 in NNW 1.9 mph 4.6 mph 52 % 0.00 in
11:03 82.7 °F 64.9 °F 29.97 in WNW 2.6 mph 7.0 mph 55 % 0.00 in
11:08 82.9 °F 62.9 °F 29.97 in West 1.1 mph 3.5 mph 51 % 0.00 in
11:13 83.2 °F 63.2 °F 29.97 in NW 0.8 mph 2.3 mph 51 % 0.00 in
11:18 83.5 °F 62.3 °F 29.98 in NNE 2.1 mph 4.0 mph 49 % 0.00 in
11:23 83.8 °F 62.6 °F 29.98 in North 1.4 mph 3.5 mph 49 % 0.00 in
11:28 84.0 °F 63.4 °F 29.98 in North 2.2 mph 4.0 mph 50 % 0.00 in
11:33 84.3 °F 61.9 °F 29.98 in North 2.5 mph 4.6 mph 47 % 0.00 in
11:38 84.5 °F 61.4 °F 29.98 in NW 1.2 mph 5.8 mph 46 % 0.00 in
11:43 84.8 °F 62.9 °F 29.98 in WNW 3.9 mph 4.6 mph 48 % 0.00 in
11:48 84.9 °F 61.8 °F 29.98 in SW 2.5 mph 5.8 mph 46 % 0.00 in
11:53 84.9 °F 59.2 °F 29.98 in WSW 3.7 mph 8.1 mph 42 % 0.00 in
11:58 85.1 °F 64.4 °F 29.98 in NNE 2.0 mph 3.5 mph 50 % 0.00 in
12:03 85.4 °F 63.5 °F 29.98 in SW 2.0 mph 6.0 mph 48 % 0.00 in
12:08 85.4 °F 62.3 °F 29.98 in West 0.9 mph 3.5 mph 46 % 0.00 in
12:13 85.6 °F 63.1 °F 29.98 in WNW 1.1 mph 5.0 mph 47 % 0.00 in
12:16 85.7 °F 62.5 °F 29.98 in WNW 2.0 mph 6.0 mph 46 % 0.00 in
12:21 85.9 °F 61.4 °F 29.98 in WNW 2.0 mph 6.0 mph 44 % 0.00 in
12:26 86.1 °F 60.4 °F 29.98 in West 2.0 mph 7.0 mph 42 % 0.00 in
12:31 86.2 °F 60.4 °F 29.98 in West 3.0 mph 8.0 mph 42 % 0.00 in
12:36 86.4 °F 61.9 °F 29.98 in WNW 1.5 mph 4.6 mph 44 % 0.00 in
12:41 86.3 °F 58.4 °F 29.98 in WSW 3.7 mph 9.2 mph 39 % 0.00 in
12:46 86.3 °F 61.2 °F 29.98 in West 2.0 mph 9.0 mph 43 % 0.00 in
12:51 86.1 °F 58.3 °F 29.98 in WSW 3.0 mph 12.0 mph 39 % 0.00 in
12:56 86.1 °F 58.2 °F 29.97 in WSW 3.0 mph 9.0 mph 39 % 0.00 in
13:01 86.1 °F 56.8 °F 29.98 in West 1.5 mph 5.8 mph 37 % 0.00 in
13:06 86.1 °F 61.6 °F 29.97 in SSW 4.4 mph 5.8 mph 44 % 0.00 in
13:11 86.2 °F 59.0 °F 29.98 in West 3.4 mph 9.2 mph 40 % 0.00 in
13:16 86.2 °F 57.6 °F 29.98 in NW 1.4 mph 5.0 mph 38 % 0.00 in
13:22 86.3 °F 62.5 °F 29.97 in WNW 1.4 mph 3.0 mph 45 % 0.00 in
13:27 86.4 °F 61.9 °F 29.97 in NW 1.0 mph 5.8 mph 44 % 0.00 in
13:32 86.6 °F 59.4 °F 29.97 in North 3.6 mph 5.0 mph 40 % 0.00 in
13:37 86.8 °F 62.3 °F 29.97 in West 2.2 mph 2.2 mph 44 % 0.00 in
13:42 87.0 °F 62.5 °F 29.97 in WNW 0.9 mph 3.5 mph 44 % 0.00 in
13:47 87.1 °F 59.8 °F 29.97 in North 2.1 mph 3.5 mph 40 % 0.00 in
13:52 87.2 °F 61.3 °F 29.97 in NW 0.8 mph 2.3 mph 42 % 0.00 in
13:57 87.2 °F 61.3 °F 29.97 in West 2.0 mph 4.0 mph 42 % 0.00 in
14:02 87.4 °F 59.4 °F 29.97 in West 1.3 mph 4.6 mph 39 % 0.00 in
14:07 87.4 °F 58.7 °F 29.97 in WSW 2.3 mph 3.5 mph 38 % 0.00 in
14:12 87.5 °F 62.2 °F 29.97 in SW 2.5 mph 5.8 mph 43 % 0.00 in
14:17 87.7 °F 61.1 °F 29.97 in WSW 2.7 mph 5.8 mph 41 % 0.00 in
14:22 87.7 °F 58.2 °F 29.97 in WSW 1.7 mph 3.5 mph 37 % 0.00 in
14:27 87.7 °F 58.9 °F 29.97 in WSW 4.9 mph 8.0 mph 38 % 0.00 in
14:32 87.7 °F 58.9 °F 29.97 in SW 3.4 mph 5.8 mph 38 % 0.00 in
14:37 87.7 °F 57.4 °F 29.97 in SW 1.6 mph 4.0 mph 36 % 0.00 in
14:42 87.8 °F 59.8 °F 29.97 in West 2.6 mph 4.0 mph 39 % 0.00 in
14:47 87.7 °F 56.7 °F 29.97 in SW 1.7 mph 4.6 mph 35 % 0.00 in
14:52 87.6 °F 57.3 °F 29.97 in NW 1.6 mph 3.5 mph 36 % 0.00 in
14:57 87.5 °F 57.3 °F 29.97 in West 3.6 mph 6.0 mph 36 % 0.00 in
15:02 87.5 °F 57.3 °F 29.97 in WSW 1.4 mph 5.8 mph 36 % 0.00 in
15:07 87.4 °F 60.8 °F 29.97 in WNW 1.8 mph 6.0 mph 41 % 0.00 in
15:12 87.5 °F 60.2 °F 29.97 in WNW 3.1 mph 5.8 mph 40 % 0.00 in
15:17 87.6 °F 58.9 °F 29.97 in NW 3.3 mph 5.8 mph 38 % 0.00 in
15:22 87.6 °F 58.1 °F 29.97 in WNW 0.8 mph 3.5 mph 37 % 0.00 in
15:27 87.7 °F 55.9 °F 29.97 in WSW 1.6 mph 5.8 mph 34 % 0.00 in
15:32 87.5 °F 60.2 °F 29.96 in WNW 1.3 mph 4.0 mph 40 % 0.00 in
15:37 87.3 °F 57.8 °F 29.97 in WNW 3.4 mph 8.1 mph 37 % 0.00 in
15:43 87.3 °F 58.6 °F 29.97 in NNE 1.0 mph 6.9 mph 38 % 0.00 in
15:48 87.3 °F 57.1 °F 29.97 in West 4.9 mph 8.1 mph 36 % 0.00 in
15:53 87.4 °F 57.9 °F 29.96 in WNW 3.3 mph 8.1 mph 37 % 0.00 in
15:58 87.4 °F 61.5 °F 29.97 in NNE 0.6 mph 2.0 mph 42 % 0.00 in
16:03 87.3 °F 58.6 °F 29.97 in West 4.4 mph 9.2 mph 38 % 0.00 in
16:08 87.5 °F 60.2 °F 29.96 in West 3.6 mph 8.1 mph 40 % 0.00 in
16:13 87.6 °F 58.9 °F 29.97 in WNW 3.7 mph 8.1 mph 38 % 0.00 in
16:18 87.6 °F 58.1 °F 29.96 in West 3.7 mph 5.8 mph 37 % 0.00 in
16:19 87.7 °F 58.9 °F 29.96 in West 1.0 mph 3.5 mph 38 % 0.00 in
16:24 87.4 °F 59.4 °F 29.96 in WNW 1.7 mph 3.5 mph 39 % 0.00 in
16:29 87.4 °F 57.9 °F 29.96 in North 2.5 mph 5.0 mph 37 % 0.00 in
16:34 87.5 °F 61.6 °F 29.96 in Calm   3.5 mph 42 % 0.00 in
16:39 87.4 °F 60.1 °F 29.96 in North 0.3 mph 3.5 mph 40 % 0.00 in
16:44 87.5 °F 59.5 °F 29.96 in WNW 2.3 mph 4.6 mph 39 % 0.00 in
16:49 87.6 °F 60.3 °F 29.96 in NW 0.9 mph 2.3 mph 40 % 0.00 in
16:54 87.4 °F 60.1 °F 29.96 in NNW 2.3 mph 3.5 mph 40 % 0.00 in
17:00 87.2 °F 59.2 °F 29.96 in North 1.4 mph 4.0 mph 39 % 0.00 in
17:05 86.8 °F 58.9 °F 29.95 in WNW 4.2 mph 6.9 mph 39 % 0.00 in
17:10 86.5 °F 58.6 °F 29.95 in NNW 0.8 mph 3.5 mph 39 % 0.00 in
17:15 86.4 °F 60.6 °F 29.95 in NW 0.4 mph 3.5 mph 42 % 0.00 in
17:25 86.3 °F 58.4 °F 29.95 in NNW 1.4 mph 4.6 mph 39 % 0.00 in
17:30 85.8 °F 57.3 °F 29.95 in NW 2.5 mph 6.9 mph 38 % 0.00 in
17:35 85.3 °F 58.2 °F 29.95 in NW 1.5 mph 5.8 mph 40 % 0.00 in
17:40 84.8 °F 57.8 °F 29.95 in WNW 0.4 mph 3.5 mph 40 % 0.00 in
17:45 84.5 °F 58.2 °F 29.95 in West 0.1 mph 2.3 mph 41 % 0.00 in
17:50 84.2 °F 58.6 °F 29.94 in WNW 0.3 mph 3.0 mph 42 % 0.00 in
17:55 83.9 °F 58.3 °F 29.95 in Calm   1.2 mph 42 % 0.00 in
18:00 83.6 °F 58.1 °F 29.95 in WNW 2.0 mph 3.5 mph 42 % 0.00 in
18:05 83.2 °F 56.4 °F 29.95 in West 1.6 mph 3.5 mph 40 % 0.00 in
18:10 82.9 °F 56.8 °F 29.95 in NNW 1.5 mph 5.8 mph 41 % 0.00 in
18:15 82.7 °F 57.3 °F 29.94 in NNE 0.1 mph 1.2 mph 42 % 0.00 in
18:20 82.4 °F 57.0 °F 29.95 in WNW 0.2 mph 1.2 mph 42 % 0.00 in
18:25 82.3 °F 58.2 °F 29.95 in WNW 0.1 mph 1.2 mph 44 % 0.00 in
18:30 82.2 °F 57.5 °F 29.94 in Calm     43 % 0.00 in
18:35 82.1 °F 57.4 °F 29.95 in SW 2.0 mph 3.0 mph 43 % 0.00 in
18:40 82.0 °F 57.3 °F 29.95 in Calm   1.2 mph 43 % 0.00 in
18:45 81.9 °F 57.2 °F 29.96 in SW 0.6 mph 3.5 mph 43 % 0.00 in
18:50 81.7 °F 57.7 °F 29.95 in SW 0.2 mph 1.2 mph 44 % 0.00 in
18:55 81.5 °F 57.5 °F 29.95 in Calm   1.2 mph 44 % 0.00 in
19:00 81.3 °F 56.7 °F 29.96 in SW 0.4 mph 2.0 mph 43 % 0.00 in
19:05 81.1 °F 57.1 °F 29.95 in SW 0.5 mph 1.2 mph 44 % 0.00 in
19:10 81.0 °F 58.9 °F 29.96 in Calm   1.0 mph 47 % 0.00 in
19:15 80.8 °F 59.3 °F 29.96 in SW 1.9 mph 3.5 mph 48 % 0.00 in
19:21 80.7 °F 59.2 °F 29.96 in WSW 0.7 mph 3.5 mph 48 % 0.00 in
19:26 80.6 °F 60.3 °F 29.96 in SW 2.0 mph 5.0 mph 50 % 0.00 in
19:31 80.5 °F 60.7 °F 29.96 in SSW 1.0 mph 3.0 mph 51 % 0.00 in
19:36 80.2 °F 61.5 °F 29.96 in WSW 1.0 mph 3.0 mph 53 % 0.00 in
19:41 79.9 °F 61.8 °F 29.97 in Calm     54 % 0.00 in
19:46 79.6 °F 61.5 °F 29.97 in West 0.7 mph 2.3 mph 54 % 0.00 in
19:51 79.2 °F 61.1 °F 29.97 in SSW 1.5 mph 3.5 mph 54 % 0.00 in
19:56 78.9 °F 61.9 °F 29.97 in SSW 0.2 mph 1.2 mph 56 % 0.00 in
20:01 78.4 °F 61.4 °F 29.97 in SSW 1.0 mph 3.5 mph 56 % 0.00 in
20:06 77.9 °F 61.4 °F 29.97 in WSW 0.1 mph 1.2 mph 57 % 0.00 in
20:11 77.5 °F 61.6 °F 29.97 in SW 0.5 mph 2.3 mph 58 % 0.00 in
20:16 77.1 °F 61.2 °F 29.97 in SW 0.4 mph 2.3 mph 58 % 0.00 in
20:21 76.7 °F 60.8 °F 29.97 in SW 0.2 mph 1.2 mph 58 % 0.00 in
20:26 76.3 °F 60.9 °F 29.97 in SW 0.5 mph 1.2 mph 59 % 0.00 in
20:32 75.9 °F 61.0 °F 29.97 in SW 0.4 mph 3.5 mph 60 % 0.00 in
20:37 75.6 °F 60.7 °F 29.97 in SSW 0.6 mph 3.5 mph 60 % 0.00 in
20:42 75.2 °F 60.8 °F 29.97 in SSW 0.5 mph 2.3 mph 61 % 0.00 in
20:47 74.9 °F 61.0 °F 29.98 in SSW 0.5 mph 1.2 mph 62 % 0.00 in
20:52 74.6 °F 60.7 °F 29.98 in South 0.4 mph 2.3 mph 62 % 0.00 in
20:57 74.4 °F 61.0 °F 29.98 in SW 0.1 mph 1.2 mph 63 % 0.00 in
21:02 74.1 °F 61.1 °F 29.98 in SW 0.6 mph 2.3 mph 64 % 0.00 in
21:07 73.9 °F 61.4 °F 29.98 in South 0.8 mph 3.5 mph 65 % 0.00 in
21:12 73.6 °F 61.5 °F 29.98 in South 0.5 mph 1.2 mph 66 % 0.00 in
21:17 73.4 °F 61.8 °F 29.98 in Calm   1.2 mph 67 % 0.00 in
21:22 73.2 °F 62.0 °F 29.99 in SSW 0.2 mph 1.2 mph 68 % 0.00 in
21:27 73.0 °F 61.8 °F 29.99 in SSW 0.2 mph 1.2 mph 68 % 0.00 in
21:32 72.9 °F 61.7 °F 29.99 in SSW 0.3 mph 1.2 mph 68 % 0.00 in
21:37 72.7 °F 61.9 °F 29.99 in Calm   1.0 mph 69 % 0.00 in
21:42 72.5 °F 62.2 °F 29.99 in Calm   1.2 mph 70 % 0.00 in
21:47 72.3 °F 62.0 °F 29.99 in Calm     70 % 0.00 in
21:52 72.1 °F 62.2 °F 30.00 in SW 0.1 mph 2.3 mph 71 % 0.00 in
21:57 71.9 °F 62.4 °F 29.99 in SW 0.5 mph 2.3 mph 72 % 0.00 in
22:02 71.7 °F 62.2 °F 29.99 in Calm     72 % 0.00 in
22:07 71.5 °F 62.4 °F 29.99 in Calm     73 % 0.00 in
22:12 71.3 °F 62.2 °F 29.99 in Calm   1.0 mph 73 % 0.00 in
22:18 71.2 °F 62.1 °F 29.99 in Calm     73 % 0.00 in
22:23 71.0 °F 62.3 °F 29.99 in SW 0.3 mph 2.3 mph 74 % 0.00 in
22:28 70.8 °F 62.1 °F 29.99 in Calm   1.0 mph 74 % 0.00 in
22:33 70.7 °F 62.4 °F 29.99 in Calm     75 % 0.00 in
22:38 70.6 °F 62.3 °F 30.00 in SW 0.2 mph 1.2 mph 75 % 0.00 in
22:43 70.4 °F 62.5 °F 30.00 in South 0.9 mph 2.0 mph 76 % 0.00 in
22:48 70.3 °F 62.7 °F 30.00 in ESE 0.3 mph 1.2 mph 77 % 0.00 in
22:53 70.3 °F 62.7 °F 30.00 in ESE 0.3 mph 2.3 mph 77 % 0.00 in
22:58 70.2 °F 63.0 °F 30.00 in Calm   1.0 mph 78 % 0.00 in
23:03 70.2 °F 63.0 °F 30.00 in Calm   2.3 mph 78 % 0.00 in
23:08 70.1 °F 63.3 °F 30.00 in ESE 0.2 mph 1.2 mph 79 % 0.00 in
23:13 70.1 °F 63.3 °F 30.00 in ESE 0.4 mph 2.3 mph 79 % 0.00 in
23:18 70.0 °F 63.5 °F 30.00 in South 0.7 mph 2.3 mph 80 % 0.00 in
23:23 70.0 °F 63.9 °F 30.00 in South 0.2 mph 1.2 mph 81 % 0.00 in
23:28 70.0 °F 63.9 °F 30.00 in SSE 0.3 mph 1.2 mph 81 % 0.00 in
23:33 70.0 °F 64.2 °F 30.00 in Calm   1.2 mph 82 % 0.00 in
23:38 70.0 °F 64.6 °F 30.01 in Calm     83 % 0.00 in
23:43 70.0 °F 64.2 °F 30.01 in SSE 0.3 mph 1.2 mph 82 % 0.00 in
23:44 70.0 °F 64.2 °F 30.01 in SSE 0.1 mph 1.2 mph 82 % 0.00 in
23:49 70.0 °F 64.6 °F 30.01 in SSE 0.1 mph 1.2 mph 83 % 0.00 in
23:54 69.9 °F 64.5 °F 30.01 in SSE 0.2 mph 1.2 mph 83 % 0.00 in
23:59 69.9 °F 64.5 °F 30.01 in Calm   3.5 mph 83 % 0.00 in
Crab Meadow Weather
Compliments of Weather Underground - 3 mb

Script developed by  Jim McMurry - jmcmurry@mwt.net Adapted for the template by  Wim van der Kuil - Leuven-Template.eu

Weather Terms: Heavy Sleet Warning - Accumulations of 1/2 inch or more of sleet.